Location: Bosmont
(49.7318°N, 3.8587°E)
Time: 18:02:04
(UTC+00:00)

COSMOS 2428 - Pass Details

Date: 08 February 2023
Orbit: 843 x 858 km, 70.9° (Epoch: 26 March)

Event Time Altitude Azimuth Distance (km) Brightness Sun altitude
Rises 19:08:23 0° 213° (SSW) 3,391 6.2 -22.5°
Reaches altitude 10° 19:10:50 10° 215° (SW) 2,459 5.5 -22.9°
Maximum altitude 19:16:29 74° 301° (WNW) 882 2.8 -23.8°
Enters shadow 19:20:22 21° 23° (NNE) 1,814 4.2 -24.4°
